TimeMDT,TemperatureF,Dew PointF,Humidity,Sea Level PressureIn,VisibilityMPH,Wind Direction,Wind SpeedMPH,Gust SpeedMPH,PrecipitationIn,Events,Conditions,WindDirDegrees,DateUTC
12:15 AM,30.2,21.2,69,30.43,-9999.0,NNE,9.2,-,N/A,,Clear,20,2014-05-13 06:15:00
12:35 AM,30.2,19.4,64,30.43,10.0,North,11.5,-,N/A,,Clear,360,2014-05-13 06:35:00
12:55 AM,28.4,21.2,74,30.44,10.0,North,8.1,-,N/A,,Clear,360,2014-05-13 06:55:00
1:15 AM,26.6,21.2,80,30.45,-9999.0,North,6.9,-,N/A,,Clear,350,2014-05-13 07:15:00
1:35 AM,26.6,19.4,74,30.45,-9999.0,Calm,Calm,-,N/A,,Clear,0,2014-05-13 07:35:00
1:55 AM,24.8,19.4,80,30.45,-9999.0,NNW,6.9,-,N/A,,Clear,340,2014-05-13 07:55:00
2:15 AM,24.8,19.4,80,30.45,-9999.0,North,8.1,-,N/A,,Clear,350,2014-05-13 08:15:00
2:35 AM,24.8,19.4,80,30.45,-9999.0,North,10.4,-,N/A,,Clear,360,2014-05-13 08:35:00
2:55 AM,24.8,19.4,80,30.45,10.0,NNE,6.9,-,N/A,,Clear,30,2014-05-13 08:55:00
3:15 AM,24.8,19.4,80,30.45,10.0,North,6.9,-,N/A,,Clear,10,2014-05-13 09:15:00
3:35 AM,24.8,19.4,80,30.46,-9999.0,NNE,3.5,-,N/A,,Clear,20,2014-05-13 09:35:00
3:55 AM,26.6,19.4,74,30.47,-9999.0,Calm,Calm,-,N/A,,Clear,0,2014-05-13 09:55:00
4:15 AM,26.6,19.4,74,30.47,-9999.0,NNE,3.5,-,N/A,,Clear,20,2014-05-13 10:15:00
4:35 AM,24.8,19.4,80,30.47,-9999.0,North,4.6,-,N/A,,Clear,10,2014-05-13 10:35:00
4:55 AM,21.2,19.4,93,30.47,-9999.0,Calm,Calm,-,N/A,,Unknown,0,2014-05-13 10:55:00
5:15 AM,24.8,19.4,80,30.48,-9999.0,Calm,Calm,-,N/A,,Clear,0,2014-05-13 11:15:00
5:35 AM,21.2,19.4,93,30.48,-9999.0,North,4.6,-,N/A,,Unknown,360,2014-05-13 11:35:00
5:55 AM,17.6,17.6,100,30.49,-9999.0,NNE,3.5,-,N/A,,Unknown,30,2014-05-13 11:55:00
6:15 AM,21.2,17.6,86,30.49,-9999.0,NNE,4.6,-,N/A,,Unknown,30,2014-05-13 12:15:00
6:50 AM,21.2,19.4,93,30.50,10.0,North,-9999.0,-,N/A,,Clear,0,2014-05-13 12:50:00
9:58 AM,37.4,19.4,48,30.51,10.0,SSW,3.5,-,N/A,,Clear,200,2014-05-13 15:58:00
11:58 AM,46.4,15.8,29,30.48,10.0,NW,9.2,-,N/A,,Clear,310,2014-05-13 17:58:00
12:51 PM,48.2,15.8,27,30.47,10.0,Calm,Calm,-,N/A,,Clear,0,2014-05-13 18:51:00
2:52 PM,51.8,10.4,19,30.44,10.0,WSW,13.8,23.0,N/A,,Partly Cloudy,250,2014-05-13 20:52:00
3:57 PM,53.6,10.4,18,30.44,10.0,NW,9.2,-,N/A,,Clear,320,2014-05-13 21:57:00
4:48 PM,53.6,8.6,16,30.42,10.0,WNW,9.2,-,N/A,,Clear,290,2014-05-13 22:48:00
5:51 PM,53.6,10.4,18,30.41,10.0,WNW,11.5,-,N/A,,Clear,300,2014-05-13 23:51:00
7:28 PM,50.0,12.2,22,30.41,10.0,NNW,8.1,-,N/A,,Clear,340,2014-05-14 01:28:00
7:32 PM,50.0,12.2,22,30.41,10.0,North,8.1,-,N/A,,Clear,350,2014-05-14 01:32:00
7:33 PM,50.0,12.2,22,30.41,10.0,North,5.8,-,N/A,,Clear,350,2014-05-14 01:33:00
7:56 PM,48.2,12.2,24,30.42,10.0,Calm,Calm,-,N/A,,Scattered Clouds,0,2014-05-14 01:56:00
8:55 PM,44.6,14.0,29,30.42,10.0,Calm,Calm,-,N/A,,Clear,0,2014-05-14 02:55:00
9:15 PM,39.2,17.6,42,30.43,10.0,Calm,Calm,-,N/A,,Clear,0,2014-05-14 03:15:00
9:35 PM,39.2,17.6,42,30.43,10.0,Calm,Calm,-,N/A,,Clear,0,2014-05-14 03:35:00
9:55 PM,35.6,21.2,56,30.44,10.0,WSW,3.5,-,N/A,,Clear,240,2014-05-14 03:55:00
10:15 PM,39.2,21.2,49,30.44,-9999.0,Calm,Calm,-,N/A,,Clear,0,2014-05-14 04:15:00
10:35 PM,35.6,21.2,56,30.45,-9999.0,NNW,3.5,-,N/A,,Clear,340,2014-05-14 04:35:00
10:55 PM,33.8,23.0,65,30.45,-9999.0,Calm,Calm,-,N/A,,Clear,0,2014-05-14 04:55:00
11:15 PM,33.8,21.2,60,30.45,-9999.0,Calm,Calm,-,N/A,,Clear,0,2014-05-14 05:15:00
11:35 PM,30.2,21.2,69,30.45,-9999.0,Calm,Calm,-,N/A,,Clear,0,2014-05-14 05:35:00
11:55 PM,30.2,23.0,75,30.45,-9999.0,North,4.6,-,N/A,,Clear,10,2014-05-14 05:55:00